This is the latest recevied weather packets stored in our database for station/object KF5JED-13. If no packets are shown the sender has not sent any weather packets the latest 10 day(s).
| Time | Temp. | Humidity | Pressure | Rain* | Wind** | Luminosity | Snow |
|---|---|---|---|---|---|---|---|
| 1777608210 | 11.67° C | 82% | 1017.8 hPa | 0 mm | - | 0 W/m² | - |
| 1777607907 | 11.11° C | 82% | 1018 hPa | 0 mm | - | 0 W/m² | - |
| 1777607602 | 11.67° C | 82% | 1018 hPa | 0 mm | - | 0 W/m² | - |
| 1777607300 | 11.67° C | 81% | 1018 hPa | 0 mm | - | 0 W/m² | - |
| 1777606995 | 11.67° C | 79% | 1018 hPa | 0 mm | - | 0 W/m² | - |
| 1777606691 | 12.22° C | 76% | 1017.9 hPa | 0 mm | - | 0 W/m² | - |
| 1777606387 | 12.78° C | 73% | 1017.6 hPa | 0 mm | - | 0 W/m² | - |
| 1777606082 | 13.33° C | 69% | 1017.5 hPa | 0 mm | - | 0 W/m² | - |
| 1777605778 | 13.33° C | 69% | 1017.5 hPa | 0 mm | - | 0 W/m² | - |
| 1777605477 | 13.33° C | 68% | 1017.2 hPa | 0 mm | - | 0 W/m² | - |
| 1777605174 | 13.89° C | 68% | 1017.1 hPa | 0 mm | - | 0 W/m² | - |
| 1777604869 | 13.89° C | 67% | 1017 hPa | 0 mm | - | 0 W/m² | - |
| 1777604566 | 13.89° C | 67% | 1017 hPa | 0 mm | - | 0 W/m² | - |
| 1777604262 | 13.89° C | 67% | 1017 hPa | 0 mm | - | 0 W/m² | - |
| 1777603957 | 13.89° C | 67% | 1017.1 hPa | 0 mm | - | 0 W/m² | - |
| 1777603655 | 13.33° C | 67% | 1016.6 hPa | 0 mm | - | 0 W/m² | - |
| 1777603351 | 13.33° C | 67% | 1016.6 hPa | 0 mm | - | 0 W/m² | - |
| 1777603046 | 13.33° C | 67% | 1016.7 hPa | 0 mm | - | 0 W/m² | - |
| 1777602741 | 13.89° C | 67% | 1016.6 hPa | 0 mm | - | 0 W/m² | - |
| 1777602437 | 13.33° C | 67% | 1016.5 hPa | 0 mm | - | 0 W/m² | - |
| 1777602134 | 13.89° C | 67% | 1016.5 hPa | 0 mm | - | 0 W/m² | - |
| 1777601829 | 13.89° C | 67% | 1016.1 hPa | 0 mm | - | 0 W/m² | - |
| 1777601524 | 13.89° C | 66% | 1016.5 hPa | 0 mm | - | 0 W/m² | - |
| 1777601219 | 13.89° C | 67% | 1016.2 hPa | 0 mm | - | 0 W/m² | - |
| 1777600917 | 13.89° C | 66% | 1016.2 hPa | 0 mm | - | 0 W/m² | - |
* Rain latest hour (hover to see other rain measurements)
** Current wind speed in m/s (hover to see current wind gust speed)